Retour au catalogue

CZ-2C R/B

ActifVLEO
NORAD 43084·ROCKET BODY·🇨🇳 China

Lancé Dec 25, 2017 depuis Xichang Satellite Launch Center

Loading…

Prochains Passages (prochaines 24 heures)

TLE

FraisSource: Space-Track

Époque: Sep 14, 2026, 09:02 UTC

1 43084U 17085D   26257.37696522  .00010923  00000-0  24787-3 0  9998
2 43084  34.6599  20.1151 0048416 174.5587 185.5661 15.40906746482409

Suivez CZ-2C R/B en temps réel avec AllMySat

Download on the App Store